Location: LDNL
(36.4545°S, 141.6685°E)
Time: 09:16:50
(UTC+11:00)

Courier 1B - Pass Details

Date: 09 February 2023
Orbit: 962 x 1209 km, 28.3° (Epoch: 21 March)

Event Time Altitude Azimuth Distance (km) Brightness Sun altitude
Rises 23:36:07 0° 302° (WNW) 3,765 10.6 -30.2°
Reaches altitude 10° 23:38:58 10° 310° (NW) 2,851 9.9 -30.6°
Enters shadow 23:39:41 13° 313° (NW) 2,635 9.7 -30.7°
